owner,sensor,date,latitude,longitude,vertical_datum,sea_water_practical_salinity,qcFlag 
SCCF RECON,ioos:station:SCCF:16:1,2010-09-01T00:00:00Z,26.4345,-81.9647,2.545,33.5,1111122 
SCCF RECON,ioos:station:SCCF:16:1,2010-09-01T01:00:00Z,26.4345,-81.9647,2.54,33.62,1111122 
SCCF RECON,ioos:station:SCCF:16:1,2010-09-01T02:00:00Z,26.4345,-81.9647,2.51,33.68,1111122 
SCCF RECON,ioos:station:SCCF:16:1,2010-09-01T03:00:00Z,26.4345,-81.9647,2.478,33.7,1111122 
SCCF RECON,ioos:station:SCCF:16:1,2010-09-01T04:00:00Z,26.4345,-81.9647,2.52,33.53,1111122 
SCCF RECON,ioos:station:SCCF:16:1,2010-09-01T05:00:00Z,26.4345,-81.9647,2.542,33.61,1111122 
SCCF RECON,ioos:station:SCCF:16:1,2010-09-01T06:00:00Z,26.4345,-81.9647,2.57,33.47,1111122 
SCCF RECON,ioos:station:SCCF:16:1,2010-09-01T07:00:00Z,26.4345,-81.9647,2.59,33.57,1111122 
SCCF RECON,ioos:station:SCCF:16:1,2010-09-01T08:00:00Z,26.4345,-81.9647,2.72,33.51,1111122 
SCCF RECON,ioos:station:SCCF:16:1,2010-09-01T09:00:00Z,26.4345,-81.9647,2.767,33.52,1111122 
SCCF RECON,ioos:station:SCCF:16:1,2010-09-01T10:00:00Z,26.4345,-81.9647,2.81,33.59,1111122 
SCCF RECON,ioos:station:SCCF:16:1,2010-09-01T11:00:00Z,26.4345,-81.9647,2.776,33.68,1111122 
SCCF RECON,ioos:station:SCCF:16:1,2010-09-01T12:00:00Z,26.4345,-81.9647,2.651,33.66,1111122 
SCCF RECON,ioos:station:SCCF:16:1,2010-09-01T13:00:00Z,26.4345,-81.9647,2.49,33.53,1111122 
SCCF RECON,ioos:station:SCCF:16:1,2010-09-01T14:00:00Z,26.4345,-81.9647,2.35,33.4,1111122 
SCCF RECON,ioos:station:SCCF:16:1,2010-09-01T15:00:00Z,26.4345,-81.9647,2.25,33.44,1111122 
SCCF RECON,ioos:station:SCCF:16:1,2010-09-01T16:00:00Z,26.4345,-81.9647,2.113,33.45,1111122 
SCCF RECON,ioos:station:SCCF:16:1,2010-09-01T17:00:00Z,26.4345,-81.9647,2.07,32.32,1111122 
SCCF RECON,ioos:station:SCCF:16:1,2010-09-01T18:00:00Z,26.4345,-81.9647,2.146,29.89,1111122 
SCCF RECON,ioos:station:SCCF:16:1,2010-09-01T19:00:00Z,26.4345,-81.9647,2.24,31.24,1111122 
SCCF RECON,ioos:station:SCCF:16:1,2010-09-01T20:00:00Z,26.4345,-81.9647,2.32,32.88,1111122 
SCCF RECON,ioos:station:SCCF:16:1,2010-09-01T21:00:00Z,26.4345,-81.9647,2.38,33.17,1111122 
SCCF RECON,ioos:station:SCCF:16:1,2010-09-01T22:00:00Z,26.4345,-81.9647,2.46,33.32,1111122 
SCCF RECON,ioos:station:SCCF:16:1,2010-09-01T23:00:00Z,26.4345,-81.9647,2.51,33.32,1111122 
SCCF RECON,ioos:station:SCCF:16:1,2010-09-02T00:00:00Z,26.4345,-81.9647,2.565,33.36,1111122 
SCCF RECON,ioos:station:SCCF:16:1,2010-09-02T01:00:00Z,26.4345,-81.9647,2.59,33.47,1111122 
SCCF RECON,ioos:station:SCCF:16:1,2010-09-02T02:00:00Z,26.4345,-81.9647,2.56,33.62,1111122 
SCCF RECON,ioos:station:SCCF:16:1,2010-09-02T03:00:00Z,26.4345,-81.9647,2.5,33.71,1111122 
SCCF RECON,ioos:station:SCCF:16:1,2010-09-02T04:00:00Z,26.4345,-81.9647,2.522,33.78,1111122 
SCCF RECON,ioos:station:SCCF:16:1,2010-09-02T05:00:00Z,26.4345,-81.9647,2.57,33.91,1111122 
SCCF RECON,ioos:station:SCCF:16:1,2010-09-02T06:00:00Z,26.4345,-81.9647,2.56,33.69,1111122 
SCCF RECON,ioos:station:SCCF:16:1,2010-09-02T07:00:00Z,26.4345,-81.9647,2.57,33.74,1111122 
SCCF RECON,ioos:station:SCCF:16:1,2010-09-02T08:00:00Z,26.4345,-81.9647,2.723,33.64,1111122 
SCCF RECON,ioos:station:SCCF:16:1,2010-09-02T09:00:00Z,26.4345,-81.9647,2.78,33.71,1111122 
SCCF RECON,ioos:station:SCCF:16:1,2010-09-02T10:00:00Z,26.4345,-81.9647,2.86,33.74,1111122 
SCCF RECON,ioos:station:SCCF:16:1,2010-09-02T11:00:00Z,26.4345,-81.9647,2.89,33.82,1111122 
SCCF RECON,ioos:station:SCCF:16:1,2010-09-02T12:00:00Z,26.4345,-81.9647,2.821,33.89,1111122 
SCCF RECON,ioos:station:SCCF:16:1,2010-09-02T13:00:00Z,26.4345,-81.9647,2.72,33.85,1111122 
SCCF RECON,ioos:station:SCCF:16:1,2010-09-02T14:00:00Z,26.4345,-81.9647,2.62,33.77,1111122 
SCCF RECON,ioos:station:SCCF:16:1,2010-09-02T15:00:00Z,26.4345,-81.9647,2.5,33.74,1111122 
SCCF RECON,ioos:station:SCCF:16:1,2010-09-02T16:00:00Z,26.4345,-81.9647,2.36,33.66,1111122 
SCCF RECON,ioos:station:SCCF:16:1,2010-09-02T17:00:00Z,26.4345,-81.9647,2.27,33.51,1111122 
SCCF RECON,ioos:station:SCCF:16:1,2010-09-02T18:00:00Z,26.4345,-81.9647,2.2,32.43,1111122 
SCCF RECON,ioos:station:SCCF:16:1,2010-09-02T19:00:00Z,26.4345,-81.9647,2.24,31.88,1111122 
SCCF RECON,ioos:station:SCCF:16:1,2010-09-02T20:00:00Z,26.4345,-81.9647,2.28,30.82,1111122 
SCCF RECON,ioos:station:SCCF:16:1,2010-09-02T21:00:00Z,26.4345,-81.9647,2.38,31.8,1111122 
SCCF RECON,ioos:station:SCCF:16:1,2010-09-02T22:00:00Z,26.4345,-81.9647,2.472,32.96,1111122 
SCCF RECON,ioos:station:SCCF:16:1,2010-09-02T23:00:00Z,26.4345,-81.9647,2.55,33.51,1111122 
SCCF RECON,ioos:station:SCCF:16:1,2010-09-03T00:00:00Z,26.4345,-81.9647,2.61,33.72,1111122 
SCCF RECON,ioos:station:SCCF:16:1,2010-09-03T01:00:00Z,26.4345,-81.9647,2.69,33.95,1111122 
SCCF RECON,ioos:station:SCCF:16:1,2010-09-03T02:00:00Z,26.4345,-81.9647,2.72,33.93,1111122 
SCCF RECON,ioos:station:SCCF:16:1,2010-09-03T03:00:00Z,26.4345,-81.9647,2.7,33.87,1111122 
SCCF RECON,ioos:station:SCCF:16:1,2010-09-03T04:00:00Z,26.4345,-81.9647,2.66,33.97,1111122 
SCCF RECON,ioos:station:SCCF:16:1,2010-09-03T05:00:00Z,26.4345,-81.9647,2.627,34.03,1111122 
SCCF RECON,ioos:station:SCCF:16:1,2010-09-03T06:00:00Z,26.4345,-81.9647,2.64,34.08,1111122 
SCCF RECON,ioos:station:SCCF:16:1,2010-09-03T07:00:00Z,26.4345,-81.9647,2.63,34.13,1111122 
SCCF RECON,ioos:station:SCCF:16:1,2010-09-03T08:00:00Z,26.4345,-81.9647,2.66,34.14,1111122 
SCCF RECON,ioos:station:SCCF:16:1,2010-09-03T09:00:00Z,26.4345,-81.9647,2.74,34.02,1111122 
SCCF RECON,ioos:station:SCCF:16:1,2010-09-03T10:00:00Z,26.4345,-81.9647,2.79,33.92,1111122 
SCCF RECON,ioos:station:SCCF:16:1,2010-09-03T11:00:00Z,26.4345,-81.9647,2.85,34.13,1111122 
SCCF RECON,ioos:station:SCCF:16:1,2010-09-03T12:00:00Z,26.4345,-81.9647,2.86,34.21,1111122 
SCCF RECON,ioos:station:SCCF:16:1,2010-09-03T13:00:00Z,26.4345,-81.9647,2.86,34.24,1111122 
SCCF RECON,ioos:station:SCCF:16:1,2010-09-03T14:00:00Z,26.4345,-81.9647,2.78,34.3,1111122 
SCCF RECON,ioos:station:SCCF:16:1,2010-09-03T15:00:00Z,26.4345,-81.9647,2.65,34.25,1111122 
SCCF RECON,ioos:station:SCCF:16:1,2010-09-03T16:00:00Z,26.4345,-81.9647,2.486,33.92,1111122 
SCCF RECON,ioos:station:SCCF:16:1,2010-09-03T17:00:00Z,26.4345,-81.9647,2.33,33.78,1111122 
SCCF RECON,ioos:station:SCCF:16:1,2010-09-03T18:00:00Z,26.4345,-81.9647,2.181,32.28,1111122 
SCCF RECON,ioos:station:SCCF:16:1,2010-09-03T19:00:00Z,26.4345,-81.9647,2.12,31.63,1111122 
SCCF RECON,ioos:station:SCCF:16:1,2010-09-03T20:00:00Z,26.4345,-81.9647,2.148,29.94,1111122 
SCCF RECON,ioos:station:SCCF:16:1,2010-09-03T21:00:00Z,26.4345,-81.9647,2.25,30.05,1111122 
SCCF RECON,ioos:station:SCCF:16:1,2010-09-03T22:00:00Z,26.4345,-81.9647,2.38,32.1,1111122 
SCCF RECON,ioos:station:SCCF:16:1,2010-09-03T23:00:00Z,26.4345,-81.9647,2.464,33.39,1111122 
SCCF RECON,ioos:station:SCCF:16:1,2010-09-04T00:00:00Z,26.4345,-81.9647,2.561,33.19,1111122 
SCCF RECON,ioos:station:SCCF:16:1,2010-09-04T01:00:00Z,26.4345,-81.9647,2.67,33.37,1111122 
SCCF RECON,ioos:station:SCCF:16:1,2010-09-04T02:00:00Z,26.4345,-81.9647,2.79,33.2,1111122 
SCCF RECON,ioos:station:SCCF:16:1,2010-09-04T03:00:00Z,26.4345,-81.9647,2.78,33.27,1111122 
SCCF RECON,ioos:station:SCCF:16:1,2010-09-04T04:00:00Z,26.4345,-81.9647,2.8,33.96,1111122 
SCCF RECON,ioos:station:SCCF:16:1,2010-09-04T05:00:00Z,26.4345,-81.9647,2.757,33.66,1111122 
SCCF RECON,ioos:station:SCCF:16:1,2010-09-04T06:00:00Z,26.4345,-81.9647,2.69,34.11,1111122 
SCCF RECON,ioos:station:SCCF:16:1,2010-09-04T07:00:00Z,26.4345,-81.9647,2.61,34.02,1111122 
SCCF RECON,ioos:station:SCCF:16:1,2010-09-04T08:00:00Z,26.4345,-81.9647,2.61,34.04,1111122 
SCCF RECON,ioos:station:SCCF:16:1,2010-09-04T09:00:00Z,26.4345,-81.9647,2.699,34.09,1111122 
SCCF RECON,ioos:station:SCCF:16:1,2010-09-04T10:00:00Z,26.4345,-81.9647,2.81,34.24,1111122 
SCCF RECON,ioos:station:SCCF:16:1,2010-09-04T11:00:00Z,26.4345,-81.9647,2.899,33.27,1111122 
SCCF RECON,ioos:station:SCCF:16:1,2010-09-04T12:00:00Z,26.4345,-81.9647,2.929,33.63,1111122 
SCCF RECON,ioos:station:SCCF:16:1,2010-09-04T13:00:00Z,26.4345,-81.9647,2.951,34.4,1111122 
SCCF RECON,ioos:station:SCCF:16:1,2010-09-04T14:00:00Z,26.4345,-81.9647,2.963,34.4,1111122 
SCCF RECON,ioos:station:SCCF:16:1,2010-09-04T15:00:00Z,26.4345,-81.9647,2.92,34.37,1111122 
SCCF RECON,ioos:station:SCCF:16:1,2010-09-04T16:00:00Z,26.4345,-81.9647,2.76,34.18,1111122 
SCCF RECON,ioos:station:SCCF:16:1,2010-09-04T17:00:00Z,26.4345,-81.9647,2.485,34.01,1111122 
SCCF RECON,ioos:station:SCCF:16:1,2010-09-04T18:00:00Z,26.4345,-81.9647,2.25,33.72,1111122 
SCCF RECON,ioos:station:SCCF:16:1,2010-09-04T19:00:00Z,26.4345,-81.9647,2.206,33.49,1111122 
SCCF RECON,ioos:station:SCCF:16:1,2010-09-04T20:00:00Z,26.4345,-81.9647,2.1,32.45,1111122 
SCCF RECON,ioos:station:SCCF:16:1,2010-09-04T21:00:00Z,26.4345,-81.9647,2.07,30.09,1111122 
SCCF RECON,ioos:station:SCCF:16:1,2010-09-04T22:00:00Z,26.4345,-81.9647,2.2,29.54,1111122 
SCCF RECON,ioos:station:SCCF:16:1,2010-09-04T23:00:00Z,26.4345,-81.9647,2.399,30.92,1111122 
SCCF RECON,ioos:station:SCCF:16:1,2010-09-05T00:00:00Z,26.4345,-81.9647,2.508,31.48,1111122 
SCCF RECON,ioos:station:SCCF:16:1,2010-09-05T01:00:00Z,26.4345,-81.9647,2.63,33.35,1111122 
SCCF RECON,ioos:station:SCCF:16:1,2010-09-05T02:00:00Z,26.4345,-81.9647,2.738,33.8,1111122 
SCCF RECON,ioos:station:SCCF:16:1,2010-09-05T03:00:00Z,26.4345,-81.9647,2.79,33.54,1111122 
SCCF RECON,ioos:station:SCCF:16:1,2010-09-05T04:00:00Z,26.4345,-81.9647,2.8,33.97,1111122 
SCCF RECON,ioos:station:SCCF:16:1,2010-09-05T05:00:00Z,26.4345,-81.9647,2.76,34.15,1111122 
SCCF RECON,ioos:station:SCCF:16:1,2010-09-05T06:00:00Z,26.4345,-81.9647,2.675,34.22,1111122 
SCCF RECON,ioos:station:SCCF:16:1,2010-09-05T07:00:00Z,26.4345,-81.9647,2.589,34.18,1111122 
SCCF RECON,ioos:station:SCCF:16:1,2010-09-05T08:00:00Z,26.4345,-81.9647,2.519,34.21,1111122 
SCCF RECON,ioos:station:SCCF:16:1,2010-09-05T09:00:00Z,26.4345,-81.9647,2.536,34.09,1111122 
SCCF RECON,ioos:station:SCCF:16:1,2010-09-05T10:00:00Z,26.4345,-81.9647,2.614,34.13,1111122 
SCCF RECON,ioos:station:SCCF:16:1,2010-09-05T11:00:00Z,26.4345,-81.9647,2.774,34.03,1111122 
SCCF RECON,ioos:station:SCCF:16:1,2010-09-05T12:00:00Z,26.4345,-81.9647,2.902,34.09,1111122 
SCCF RECON,ioos:station:SCCF:16:1,2010-09-05T13:00:00Z,26.4345,-81.9647,2.898,34.3,1111122 
SCCF RECON,ioos:station:SCCF:16:1,2010-09-05T14:00:00Z,26.4345,-81.9647,2.969,34.24,1111122 
SCCF RECON,ioos:station:SCCF:16:1,2010-09-05T15:00:00Z,26.4345,-81.9647,3.001,34.03,1111122 
SCCF RECON,ioos:station:SCCF:16:1,2010-09-05T16:00:00Z,26.4345,-81.9647,2.904,34.02,1111122 
SCCF RECON,ioos:station:SCCF:16:1,2010-09-05T17:00:00Z,26.4345,-81.9647,2.681,34.13,1111122 
SCCF RECON,ioos:station:SCCF:16:1,2010-09-05T18:00:00Z,26.4345,-81.9647,2.511,34.1,1111122 
SCCF RECON,ioos:station:SCCF:16:1,2010-09-05T19:00:00Z,26.4345,-81.9647,2.332,33.53,1111122 
SCCF RECON,ioos:station:SCCF:16:1,2010-09-05T20:00:00Z,26.4345,-81.9647,2.138,33.23,1111122 
SCCF RECON,ioos:station:SCCF:16:1,2010-09-05T21:00:00Z,26.4345,-81.9647,2.0,31.35,1111122 
SCCF RECON,ioos:station:SCCF:16:1,2010-09-05T22:00:00Z,26.4345,-81.9647,2.009,29.72,1111122 
SCCF RECON,ioos:station:SCCF:16:1,2010-09-05T23:00:00Z,26.4345,-81.9647,2.164,29.25,1111122 
SCCF RECON,ioos:station:SCCF:16:1,2010-09-06T00:00:00Z,26.4345,-81.9647,2.379,29.73,1111122 
SCCF RECON,ioos:station:SCCF:16:1,2010-09-06T01:00:00Z,26.4345,-81.9647,2.504,31.79,1111122 
SCCF RECON,ioos:station:SCCF:16:1,2010-09-06T02:00:00Z,26.4345,-81.9647,2.67,32.48,1111122 
SCCF RECON,ioos:station:SCCF:16:1,2010-09-06T03:00:00Z,26.4345,-81.9647,2.814,33.2,1111122 
SCCF RECON,ioos:station:SCCF:16:1,2010-09-06T04:00:00Z,26.4345,-81.9647,2.85,33.15,1111122 
SCCF RECON,ioos:station:SCCF:16:1,2010-09-06T05:00:00Z,26.4345,-81.9647,2.737,32.34,1111122 
SCCF RECON,ioos:station:SCCF:16:1,2010-09-06T06:00:00Z,26.4345,-81.9647,2.675,33.38,1111122 
SCCF RECON,ioos:station:SCCF:16:1,2010-09-06T07:00:00Z,26.4345,-81.9647,2.588,32.91,1111122 
SCCF RECON,ioos:station:SCCF:16:1,2010-09-06T08:00:00Z,26.4345,-81.9647,2.505,32.87,1111122 
SCCF RECON,ioos:station:SCCF:16:1,2010-09-06T09:00:00Z,26.4345,-81.9647,2.532,32.8,1111122 
SCCF RECON,ioos:station:SCCF:16:1,2010-09-06T10:00:00Z,26.4345,-81.9647,2.473,32.78,1111122 
SCCF RECON,ioos:station:SCCF:16:1,2010-09-06T11:00:00Z,26.4345,-81.9647,2.647,32.79,1111122 
SCCF RECON,ioos:station:SCCF:16:1,2010-09-06T12:00:00Z,26.4345,-81.9647,2.842,33.02,1111122 
SCCF RECON,ioos:station:SCCF:16:1,2010-09-06T13:00:00Z,26.4345,-81.9647,2.999,33.26,1111122 
SCCF RECON,ioos:station:SCCF:16:1,2010-09-06T14:00:00Z,26.4345,-81.9647,3.108,33.42,1111122 
SCCF RECON,ioos:station:SCCF:16:1,2010-09-06T15:00:00Z,26.4345,-81.9647,3.182,33.49,1111122 
SCCF RECON,ioos:station:SCCF:16:1,2010-09-06T16:00:00Z,26.4345,-81.9647,3.147,33.47,1111122 
SCCF RECON,ioos:station:SCCF:16:1,2010-09-06T17:00:00Z,26.4345,-81.9647,3.004,33.47,1111122 
SCCF RECON,ioos:station:SCCF:16:1,2010-09-06T18:00:00Z,26.4345,-81.9647,2.784,33.44,1111122 
SCCF RECON,ioos:station:SCCF:16:1,2010-09-06T19:00:00Z,26.4345,-81.9647,2.55,33.41,1111122 
SCCF RECON,ioos:station:SCCF:16:1,2010-09-06T20:00:00Z,26.4345,-81.9647,2.34,33.23,1111122 
SCCF RECON,ioos:station:SCCF:16:1,2010-09-06T21:00:00Z,26.4345,-81.9647,2.15,32.86,1111122 
SCCF RECON,ioos:station:SCCF:16:1,2010-09-06T22:00:00Z,26.4345,-81.9647,2.064,31.32,1111122 
SCCF RECON,ioos:station:SCCF:16:1,2010-09-06T23:00:00Z,26.4345,-81.9647,2.15,29.74,1111122 
SCCF RECON,ioos:station:SCCF:16:1,2010-09-07T00:00:00Z,26.4345,-81.9647,2.36,30.25,1111122 
SCCF RECON,ioos:station:SCCF:16:1,2010-09-07T01:00:00Z,26.4345,-81.9647,2.55,31.15,1111122 
SCCF RECON,ioos:station:SCCF:16:1,2010-09-07T02:00:00Z,26.4345,-81.9647,2.68,32.72,1111122 
SCCF RECON,ioos:station:SCCF:16:1,2010-09-07T03:00:00Z,26.4345,-81.9647,2.776,32.37,1111122 
SCCF RECON,ioos:station:SCCF:16:1,2010-09-07T04:00:00Z,26.4345,-81.9647,2.88,32.46,1111122 
SCCF RECON,ioos:station:SCCF:16:1,2010-09-07T05:00:00Z,26.4345,-81.9647,2.877,33.09,1111122 
SCCF RECON,ioos:station:SCCF:16:1,2010-09-07T06:00:00Z,26.4345,-81.9647,2.81,33.1,1111122 
SCCF RECON,ioos:station:SCCF:16:1,2010-09-07T07:00:00Z,26.4345,-81.9647,2.699,33.04,1111122 
SCCF RECON,ioos:station:SCCF:16:1,2010-09-07T08:00:00Z,26.4345,-81.9647,2.561,32.8,1111122 
SCCF RECON,ioos:station:SCCF:16:1,2010-09-07T09:00:00Z,26.4345,-81.9647,2.409,32.44,1111122 
SCCF RECON,ioos:station:SCCF:16:1,2010-09-07T10:00:00Z,26.4345,-81.9647,2.381,32.11,1111122 
SCCF RECON,ioos:station:SCCF:16:1,2010-09-07T11:00:00Z,26.4345,-81.9647,2.466,31.63,1111122 
SCCF RECON,ioos:station:SCCF:16:1,2010-09-07T12:00:00Z,26.4345,-81.9647,2.593,31.54,1111122 
SCCF RECON,ioos:station:SCCF:16:1,2010-09-07T13:00:00Z,26.4345,-81.9647,2.828,32.72,1111122 
SCCF RECON,ioos:station:SCCF:16:1,2010-09-07T14:00:00Z,26.4345,-81.9647,3.033,33.04,1111122 
SCCF RECON,ioos:station:SCCF:16:1,2010-09-07T15:00:00Z,26.4345,-81.9647,3.12,33.37,1111122 
SCCF RECON,ioos:station:SCCF:16:1,2010-09-07T16:00:00Z,26.4345,-81.9647,3.157,33.33,1111122 
SCCF RECON,ioos:station:SCCF:16:1,2010-09-07T17:00:00Z,26.4345,-81.9647,3.157,33.51,1111122 
SCCF RECON,ioos:station:SCCF:16:1,2010-09-07T18:00:00Z,26.4345,-81.9647,2.99,33.04,1111122 
SCCF RECON,ioos:station:SCCF:16:1,2010-09-07T19:00:00Z,26.4345,-81.9647,2.74,33.19,1111122 
SCCF RECON,ioos:station:SCCF:16:1,2010-09-07T20:00:00Z,26.4345,-81.9647,2.47,32.87,1111122 
SCCF RECON,ioos:station:SCCF:16:1,2010-09-07T21:00:00Z,26.4345,-81.9647,2.271,32.37,1111122 
SCCF RECON,ioos:station:SCCF:16:1,2010-09-07T22:00:00Z,26.4345,-81.9647,2.22,31.7,1111122 
SCCF RECON,ioos:station:SCCF:16:1,2010-09-07T23:00:00Z,26.4345,-81.9647,2.095,30.51,1111122 
SCCF RECON,ioos:station:SCCF:16:1,2010-09-08T00:00:00Z,26.4345,-81.9647,2.213,29.29,1111122 
SCCF RECON,ioos:station:SCCF:16:1,2010-09-08T01:00:00Z,26.4345,-81.9647,2.475,30.58,1111122 
SCCF RECON,ioos:station:SCCF:16:1,2010-09-08T02:00:00Z,26.4345,-81.9647,2.7,32.16,1111122 
SCCF RECON,ioos:station:SCCF:16:1,2010-09-08T03:00:00Z,26.4345,-81.9647,2.8,32.51,1111122 
SCCF RECON,ioos:station:SCCF:16:1,2010-09-08T04:00:00Z,26.4345,-81.9647,2.91,32.97,1111122 
SCCF RECON,ioos:station:SCCF:16:1,2010-09-08T05:00:00Z,26.4345,-81.9647,2.932,33.15,1111122 
SCCF RECON,ioos:station:SCCF:16:1,2010-09-08T06:00:00Z,26.4345,-81.9647,2.84,33.3,1111122 
SCCF RECON,ioos:station:SCCF:16:1,2010-09-08T07:00:00Z,26.4345,-81.9647,2.652,33.3,1111122 
SCCF RECON,ioos:station:SCCF:16:1,2010-09-08T08:00:00Z,26.4345,-81.9647,2.5,32.13,1111122 
SCCF RECON,ioos:station:SCCF:16:1,2010-09-08T09:00:00Z,26.4345,-81.9647,2.337,31.65,1111122 
SCCF RECON,ioos:station:SCCF:16:1,2010-09-08T10:00:00Z,26.4345,-81.9647,2.24,30.71,1111122 
SCCF RECON,ioos:station:SCCF:16:1,2010-09-08T11:00:00Z,26.4345,-81.9647,2.2,30.87,1111122 
SCCF RECON,ioos:station:SCCF:16:1,2010-09-08T12:00:00Z,26.4345,-81.9647,2.292,30.23,1111122 
SCCF RECON,ioos:station:SCCF:16:1,2010-09-08T13:00:00Z,26.4345,-81.9647,2.529,30.73,1111122 
SCCF RECON,ioos:station:SCCF:16:1,2010-09-08T14:00:00Z,26.4345,-81.9647,2.779,31.72,1111122 
SCCF RECON,ioos:station:SCCF:16:1,2010-09-08T15:00:00Z,26.4345,-81.9647,2.98,31.99,1111122 
SCCF RECON,ioos:station:SCCF:16:1,2010-09-08T16:00:00Z,26.4345,-81.9647,3.11,32.14,1111122 
SCCF RECON,ioos:station:SCCF:16:1,2010-09-08T17:00:00Z,26.4345,-81.9647,3.131,32.37,1111122 
SCCF RECON,ioos:station:SCCF:16:1,2010-09-08T18:00:00Z,26.4345,-81.9647,3.04,32.6,1111122 
SCCF RECON,ioos:station:SCCF:16:1,2010-09-08T19:00:00Z,26.4345,-81.9647,2.88,32.64,1111122 
SCCF RECON,ioos:station:SCCF:16:1,2010-09-08T20:00:00Z,26.4345,-81.9647,2.68,32.3,1111122 
SCCF RECON,ioos:station:SCCF:16:1,2010-09-08T21:00:00Z,26.4345,-81.9647,2.5,32.05,1111122 
SCCF RECON,ioos:station:SCCF:16:1,2010-09-08T22:00:00Z,26.4345,-81.9647,2.33,31.39,1111122 
SCCF RECON,ioos:station:SCCF:16:1,2010-09-08T23:00:00Z,26.4345,-81.9647,2.23,31.08,1111122 
SCCF RECON,ioos:station:SCCF:16:1,2010-09-09T00:00:00Z,26.4345,-81.9647,2.26,31.24,1111122 
SCCF RECON,ioos:station:SCCF:16:1,2010-09-09T01:00:00Z,26.4345,-81.9647,2.443,30.83,1111122 
SCCF RECON,ioos:station:SCCF:16:1,2010-09-09T02:00:00Z,26.4345,-81.9647,2.645,31.24,1111122 
SCCF RECON,ioos:station:SCCF:16:1,2010-09-09T03:00:00Z,26.4345,-81.9647,2.81,31.84,1111122 
SCCF RECON,ioos:station:SCCF:16:1,2010-09-09T04:00:00Z,26.4345,-81.9647,2.961,31.9,1111122 
SCCF RECON,ioos:station:SCCF:16:1,2010-09-09T05:00:00Z,26.4345,-81.9647,3.002,32.31,1111122 
SCCF RECON,ioos:station:SCCF:16:1,2010-09-09T06:00:00Z,26.4345,-81.9647,3.0,32.58,1111122 
SCCF RECON,ioos:station:SCCF:16:1,2010-09-09T07:00:00Z,26.4345,-81.9647,2.861,32.6,1111122 
SCCF RECON,ioos:station:SCCF:16:1,2010-09-09T08:00:00Z,26.4345,-81.9647,2.68,32.77,1111122 
SCCF RECON,ioos:station:SCCF:16:1,2010-09-09T09:00:00Z,26.4345,-81.9647,2.461,32.25,1111122 
SCCF RECON,ioos:station:SCCF:16:1,2010-09-09T10:00:00Z,26.4345,-81.9647,2.3,31.24,1111122 
SCCF RECON,ioos:station:SCCF:16:1,2010-09-09T11:00:00Z,26.4345,-81.9647,2.17,30.8,1111122 
SCCF RECON,ioos:station:SCCF:16:1,2010-09-09T12:00:00Z,26.4345,-81.9647,2.172,30.83,1111122 
SCCF RECON,ioos:station:SCCF:16:1,2010-09-09T13:00:00Z,26.4345,-81.9647,2.31,30.03,1111122 
SCCF RECON,ioos:station:SCCF:16:1,2010-09-09T14:00:00Z,26.4345,-81.9647,2.59,31.26,1111122 
SCCF RECON,ioos:station:SCCF:16:1,2010-09-09T15:00:00Z,26.4345,-81.9647,2.82,31.65,1111122 
SCCF RECON,ioos:station:SCCF:16:1,2010-09-09T16:00:00Z,26.4345,-81.9647,2.966,32.2,1111122 
SCCF RECON,ioos:station:SCCF:16:1,2010-09-09T17:00:00Z,26.4345,-81.9647,3.04,32.65,1111122 
SCCF RECON,ioos:station:SCCF:16:1,2010-09-09T18:00:00Z,26.4345,-81.9647,3.07,32.99,1111122 
SCCF RECON,ioos:station:SCCF:16:1,2010-09-09T19:00:00Z,26.4345,-81.9647,3.0,33.13,1111122 
SCCF RECON,ioos:station:SCCF:16:1,2010-09-09T20:00:00Z,26.4345,-81.9647,2.84,33.32,1111122 
SCCF RECON,ioos:station:SCCF:16:1,2010-09-09T21:00:00Z,26.4345,-81.9647,2.62,33.01,1111122 
SCCF RECON,ioos:station:SCCF:16:1,2010-09-09T22:00:00Z,26.4345,-81.9647,2.46,32.46,1111122 
SCCF RECON,ioos:station:SCCF:16:1,2010-09-09T23:00:00Z,26.4345,-81.9647,2.28,31.41,1111122 
SCCF RECON,ioos:station:SCCF:16:1,2010-09-10T00:00:00Z,26.4345,-81.9647,2.22,31.02,1111122 
SCCF RECON,ioos:station:SCCF:16:1,2010-09-10T01:00:00Z,26.4345,-81.9647,2.303,30.99,1111122 
SCCF RECON,ioos:station:SCCF:16:1,2010-09-10T02:00:00Z,26.4345,-81.9647,2.55,31.03,1111122 
SCCF RECON,ioos:station:SCCF:16:1,2010-09-10T03:00:00Z,26.4345,-81.9647,2.8,31.81,1111122 
SCCF RECON,ioos:station:SCCF:16:1,2010-09-10T04:00:00Z,26.4345,-81.9647,2.95,32.48,1111122 
SCCF RECON,ioos:station:SCCF:16:1,2010-09-10T05:00:00Z,26.4345,-81.9647,3.02,32.95,1111122 
SCCF RECON,ioos:station:SCCF:16:1,2010-09-10T06:00:00Z,26.4345,-81.9647,3.018,33.1,1111122 
SCCF RECON,ioos:station:SCCF:16:1,2010-09-10T07:00:00Z,26.4345,-81.9647,2.96,32.64,1111122 
SCCF RECON,ioos:station:SCCF:16:1,2010-09-10T08:00:00Z,26.4345,-81.9647,2.79,32.76,1111122 
SCCF RECON,ioos:station:SCCF:16:1,2010-09-10T09:00:00Z,26.4345,-81.9647,2.58,32.76,1111122 
SCCF RECON,ioos:station:SCCF:16:1,2010-09-10T10:00:00Z,26.4345,-81.9647,2.41,32.31,1111122 
SCCF RECON,ioos:station:SCCF:16:1,2010-09-10T11:00:00Z,26.4345,-81.9647,2.236,31.38,1111122 
SCCF RECON,ioos:station:SCCF:16:1,2010-09-10T12:00:00Z,26.4345,-81.9647,2.108,31.27,1111122 
SCCF RECON,ioos:station:SCCF:16:1,2010-09-10T13:00:00Z,26.4345,-81.9647,2.11,30.41,1111122 
SCCF RECON,ioos:station:SCCF:16:1,2010-09-10T14:00:00Z,26.4345,-81.9647,2.33,29.42,1111122 
SCCF RECON,ioos:station:SCCF:16:1,2010-09-10T15:00:00Z,26.4345,-81.9647,2.59,31.27,1111122 
SCCF RECON,ioos:station:SCCF:16:1,2010-09-10T16:00:00Z,26.4345,-81.9647,2.76,31.92,1111122 
SCCF RECON,ioos:station:SCCF:16:1,2010-09-10T17:00:00Z,26.4345,-81.9647,2.87,32.1,1111122 
SCCF RECON,ioos:station:SCCF:16:1,2010-09-10T18:00:00Z,26.4345,-81.9647,2.96,32.07,1111122 
SCCF RECON,ioos:station:SCCF:16:1,2010-09-10T19:00:00Z,26.4345,-81.9647,2.95,32.3,1111122 
SCCF RECON,ioos:station:SCCF:16:1,2010-09-10T20:00:00Z,26.4345,-81.9647,2.869,32.31,1111122 
SCCF RECON,ioos:station:SCCF:16:1,2010-09-10T21:00:00Z,26.4345,-81.9647,2.72,32.36,1111122 
SCCF RECON,ioos:station:SCCF:16:1,2010-09-10T22:00:00Z,26.4345,-81.9647,2.579,32.16,1111122 
SCCF RECON,ioos:station:SCCF:16:1,2010-09-10T23:00:00Z,26.4345,-81.9647,2.46,32.02,1111122 
SCCF RECON,ioos:station:SCCF:16:1,2010-09-11T00:00:00Z,26.4345,-81.9647,2.37,31.7,1111122 
SCCF RECON,ioos:station:SCCF:16:1,2010-09-11T01:00:00Z,26.4345,-81.9647,2.322,30.55,1111122 
SCCF RECON,ioos:station:SCCF:16:1,2010-09-11T02:00:00Z,26.4345,-81.9647,2.41,30.69,1111122 
SCCF RECON,ioos:station:SCCF:16:1,2010-09-11T03:00:00Z,26.4345,-81.9647,2.647,30.81,1111122 
SCCF RECON,ioos:station:SCCF:16:1,2010-09-11T04:00:00Z,26.4345,-81.9647,2.84,31.18,1111122 
SCCF RECON,ioos:station:SCCF:16:1,2010-09-11T05:00:00Z,26.4345,-81.9647,2.938,32.57,1111122 
SCCF RECON,ioos:station:SCCF:16:1,2010-09-11T06:00:00Z,26.4345,-81.9647,2.98,32.72,1111122 
SCCF RECON,ioos:station:SCCF:16:1,2010-09-11T07:00:00Z,26.4345,-81.9647,3.01,32.05,1111122 
SCCF RECON,ioos:station:SCCF:16:1,2010-09-11T08:00:00Z,26.4345,-81.9647,2.91,33.3,1111122 
SCCF RECON,ioos:station:SCCF:16:1,2010-09-11T09:00:00Z,26.4345,-81.9647,2.76,32.55,1111122 
SCCF RECON,ioos:station:SCCF:16:1,2010-09-11T10:00:00Z,26.4345,-81.9647,2.54,31.73,1111122 
SCCF RECON,ioos:station:SCCF:16:1,2010-09-11T11:00:00Z,26.4345,-81.9647,2.301,31.96,1111122 
SCCF RECON,ioos:station:SCCF:16:1,2010-09-11T12:00:00Z,26.4345,-81.9647,2.14,31.16,1111122 
SCCF RECON,ioos:station:SCCF:16:1,2010-09-11T13:00:00Z,26.4345,-81.9647,2.01,30.87,1111122 
SCCF RECON,ioos:station:SCCF:16:1,2010-09-11T14:00:00Z,26.4345,-81.9647,2.06,28.86,1111122 
SCCF RECON,ioos:station:SCCF:16:1,2010-09-11T15:00:00Z,26.4345,-81.9647,2.31,28.31,1111122 
SCCF RECON,ioos:station:SCCF:16:1,2010-09-11T16:00:00Z,26.4345,-81.9647,2.543,30.95,1111122 
SCCF RECON,ioos:station:SCCF:16:1,2010-09-11T17:00:00Z,26.4345,-81.9647,2.67,31.7,1111122 
SCCF RECON,ioos:station:SCCF:16:1,2010-09-11T18:00:00Z,26.4345,-81.9647,2.76,31.82,1111122 